2015-10-19 00:06:09 r, 17.43m,0000000009Hz,0000048751c,0000000.106s, 028.3C,00002195
2015-10-19 00:16:12 r, 17.27m,0000000011Hz,0000042056c,0000000.091s, 028.3C,00002195
2015-10-19 00:26:09 r, 17.27m,0000000011Hz,0000042365c,0000000.092s, 028.3C,00002195
2015-10-19 00:36:12 r, 17.64m,0000000008Hz,0000059130c,0000000.128s, 028.3C,00002195
2015-10-19 00:46:09 r, 17.48m,0000000009Hz,0000051066c,0000000.111s, 028.3C,00002195
2015-10-19 00:56:09 r, 17.44m,0000000010Hz,0000049512c,0000000.107s, 028.0C,00002195
2015-10-19 01:06:09 r, 17.69m,0000000008Hz,0000062204c,0000000.135s, 028.0C,00002195
2015-10-19 01:16:11 r, 17.77m,0000000007Hz,0000066907c,0000000.145s, 027.7C,00002195
2015-10-19 01:26:09 r, 17.97m,0000000006Hz,0000080342c,0000000.174s, 027.7C,00002195
2015-10-19 01:36:09 r, 18.09m,0000000005Hz,0000089302c,0000000.194s, 027.7C,00002195
2015-10-19 01:46:11 r, 18.26m,0000000005Hz,0000104776c,0000000.227s, 027.3C,00002195
2015-10-19 01:56:09 r, 18.23m,0000000005Hz,0000101812c,0000000.221s, 027.3C,00002195
2015-10-19 02:06:09 r, 18.25m,0000000004Hz,0000103667c,0000000.225s, 027.0C,00002195
2015-10-19 02:16:10 r, 18.18m,0000000005Hz,0000096583c,0000000.210s, 026.7C,00002195
2015-10-19 02:26:09 r, 18.03m,0000000006Hz,0000084437c,0000000.183s, 026.7C,00002195
2015-10-19 02:36:10 r, 17.86m,0000000007Hz,0000072465c,0000000.157s, 026.4C,00002195
2015-10-19 02:46:12 r, 17.94m,0000000005Hz,0000078614c,0000000.171s, 026.4C,00002195
2015-10-19 02:56:09 r, 18.13m,0000000005Hz,0000093118c,0000000.202s, 026.4C,00002195
2015-10-19 03:06:12 r, 18.24m,0000000004Hz,0000102768c,0000000.223s, 026.4C,00002195
2015-10-19 03:16:09 r, 18.25m,0000000004Hz,0000103634c,0000000.225s, 026.4C,00002195
2015-10-19 03:26:09 r, 18.33m,0000000004Hz,0000111926c,0000000.243s, 026.1C,00002195
2015-10-19 03:36:09 r, 18.37m,0000000004Hz,0000115937c,0000000.252s, 026.1C,00002195
2015-10-19 03:46:10 r, 18.42m,0000000004Hz,0000121109c,0000000.263s, 026.1C,00002195
2015-10-19 03:56:09 r, 18.43m,0000000003Hz,0000123123c,0000000.267s, 026.1C,00002195
2015-10-19 04:06:10 r, 18.49m,0000000004Hz,0000129334c,0000000.281s, 026.1C,00002195
2015-10-19 04:16:10 r, 18.52m,0000000004Hz,0000133195c,0000000.289s, 026.1C,00002195
2015-10-19 04:26:09 r, 18.50m,0000000003Hz,0000130803c,0000000.284s, 026.1C,00002195
2015-10-19 04:36:10 r, 18.51m,0000000004Hz,0000132712c,0000000.288s, 026.1C,00002195
2015-10-19 04:46:09 r, 18.51m,0000000004Hz,0000132457c,0000000.287s, 026.1C,00002195
2015-10-19 04:56:09 r, 18.51m,0000000004Hz,0000131771c,0000000.286s, 026.1C,00002195
2015-10-19 05:06:12 r, 18.51m,0000000003Hz,0000132506c,0000000.288s, 025.7C,00002195
2015-10-19 05:16:10 r, 18.51m,0000000003Hz,0000131933c,0000000.286s, 025.7C,00002195
2015-10-19 05:26:09 r, 18.49m,0000000004Hz,0000129498c,0000000.281s, 025.4C,00002195
2015-10-19 05:36:12 r, 18.46m,0000000004Hz,0000125836c,0000000.273s, 025.1C,00002195
2015-10-19 05:46:10 r, 18.49m,0000000003Hz,0000129547c,0000000.281s, 025.1C,00002195
2015-10-19 05:56:09 r, 18.50m,0000000003Hz,0000130834c,0000000.284s, 024.8C,00002195
2015-10-19 06:06:11 r, 18.51m,0000000004Hz,0000132538c,0000000.288s, 024.8C,00002195
2015-10-19 06:16:10 r, 18.51m,0000000004Hz,0000131573c,0000000.286s, 024.4C,00002195
2015-10-19 06:26:09 r, 18.50m,0000000004Hz,0000130479c,0000000.283s, 024.1C,00002195
2015-10-19 06:36:11 r, 18.45m,0000000004Hz,0000124927c,0000000.271s, 024.1C,00002195
2015-10-19 06:46:10 r, 18.28m,0000000005Hz,0000106515c,0000000.231s, 024.1C,00002195
2015-10-19 06:56:09 r, 17.79m,0000000007Hz,0000068068c,0000000.148s, 024.1C,00002195
2015-10-19 07:06:09 r, 16.74m,0000000018Hz,0000025946c,0000000.056s, 023.8C,00002195
2015-10-19 07:16:12 r, 14.97m,0000000088Hz,0000005101c,0000000.011s, 023.8C,00002195
2015-10-19 07:26:09 r, 12.82m,0000000666Hz,0000000000c,0000000.000s, 023.8C,00002195
2015-10-19 07:36:12 r, 10.75m,0000004463Hz,0000000000c,0000000.000s, 023.5C,00002195
2015-10-19 07:46:10 r, 09.00m,0000022450Hz,0000000000c,0000000.000s, 023.2C,00002195
2015-10-19 07:56:09 r, 07.82m,0000066363Hz,0000000000c,0000000.000s, 023.2C,00002195
2015-10-19 08:06:10 r, 06.91m,0000152662Hz,0000000000c,0000000.000s, 023.2C,00002195
2015-10-19 08:16:10 r, 06.34m,0000258829Hz,0000000000c,0000000.000s, 022.8C,00002195
2015-10-19 08:26:09 r, 05.98m,0000361009Hz,0000000000c,0000000.000s, 023.2C,00002195
2015-10-19 08:36:09 r, 00.00m,0000466797Hz,0000000000c,0000000.000s, 023.2C,00002195
2015-10-19 08:46:09 r, 00.00m,0000547810Hz,0000000000c,0000000.000s, 023.2C,00002195
2015-10-19 08:56:09 r, 00.00m,0000563571Hz,0000000000c,0000000.000s, 023.2C,00002195
2015-10-19 09:06:09 r, 00.00m,0000563469Hz,0000000000c,0000000.000s, 023.5C,00002195
2015-10-19 09:16:12 r, 00.00m,0000563599Hz,0000000000c,0000000.000s, 024.1C,00002195
2015-10-19 09:26:09 r, 00.00m,0000563733Hz,0000000000c,0000000.000s, 025.1C,00002195
2015-10-19 09:36:09 r, 00.00m,0000563874Hz,0000000000c,0000000.000s, 026.4C,00002195
2015-10-19 09:46:10 r, 00.00m,0000564022Hz,0000000000c,0000000.000s, 027.3C,00002195
2015-10-19 09:56:09 r, 00.00m,0000564148Hz,0000000000c,0000000.000s, 028.6C,00002195
2015-10-19 10:06:10 r, 00.00m,0000564208Hz,0000000000c,0000000.000s, 029.6C,00002195
2015-10-19 10:16:10 r, 00.00m,0000564312Hz,0000000000c,0000000.000s, 030.2C,00002195
2015-10-19 10:26:10 r, 00.00m,0000564320Hz,0000000000c,0000000.000s, 030.9C,00002195
2015-10-19 10:36:09 r, 00.00m,0000564424Hz,0000000000c,0000000.000s, 031.5C,00002195
2015-10-19 10:46:11 r, 00.00m,0000564456Hz,0000000000c,0000000.000s, 032.2C,00002195
2015-10-19 10:56:10 r, 00.00m,0000564540Hz,0000000000c,0000000.000s, 032.8C,00002195
2015-10-19 11:06:10 r, 00.00m,0000564549Hz,0000000000c,0000000.000s, 033.1C,00002195
2015-10-19 11:16:12 r, 00.00m,0000564658Hz,0000000000c,0000000.000s, 033.8C,00002195
2015-10-19 11:26:10 r, 00.00m,0000564717Hz,0000000000c,0000000.000s, 034.8C,00002195
2015-10-19 11:36:10 r, 00.00m,0000564779Hz,0000000000c,0000000.000s, 035.4C,00002195
2015-10-19 11:46:12 r, 00.00m,0000564836Hz,0000000000c,0000000.000s, 035.7C,00002195
2015-10-19 11:56:10 r, 00.00m,0000564947Hz,0000000000c,0000000.000s, 036.7C,00002195
2015-10-19 12:06:10 r, 00.00m,0000564974Hz,0000000000c,0000000.000s, 037.3C,00002195
2015-10-19 12:16:10 r, 00.00m,0000565033Hz,0000000000c,0000000.000s, 037.3C,00002195
2015-10-19 12:26:11 r, 00.00m,0000565008Hz,0000000000c,0000000.000s, 037.7C,00002195
2015-10-19 12:36:10 r, 00.00m,0000565077Hz,0000000000c,0000000.000s, 038.3C,00002195
2015-10-19 12:46:10 r, 00.00m,0000565123Hz,0000000000c,0000000.000s, 038.3C,00002195
2015-10-19 12:56:12 r, 00.00m,0000565076Hz,0000000000c,0000000.000s, 038.3C,00002195
2015-10-19 13:06:10 r, 00.00m,0000565029Hz,0000000000c,0000000.000s, 038.3C,00002195
2015-10-19 13:16:12 r, 00.00m,0000565102Hz,0000000000c,0000000.000s, 038.6C,00002195
2015-10-19 13:26:10 r, 00.00m,0000565085Hz,0000000000c,0000000.000s, 038.6C,00002195
2015-10-19 13:36:10 r, 00.00m,0000565124Hz,0000000000c,0000000.000s, 039.0C,00002195
2015-10-19 13:46:10 r, 00.00m,0000565156Hz,0000000000c,0000000.000s, 039.0C,00002195
2015-10-19 13:56:10 r, 00.00m,0000565115Hz,0000000000c,0000000.000s, 039.0C,00002195
2015-10-19 14:06:10 r, 00.00m,0000565118Hz,0000000000c,0000000.000s, 039.3C,00002195
2015-10-19 14:16:10 r, 00.00m,0000565140Hz,0000000000c,0000000.000s, 039.3C,00002195
2015-10-19 14:26:11 r, 00.00m,0000565109Hz,0000000000c,0000000.000s, 039.3C,00002195
2015-10-19 14:36:10 r, 00.00m,0000565163Hz,0000000000c,0000000.000s, 039.3C,00002195
2015-10-19 14:46:10 r, 00.00m,0000565174Hz,0000000000c,0000000.000s, 039.3C,00002195
2015-10-19 14:56:10 r, 00.00m,0000565167Hz,0000000000c,0000000.000s, 039.9C,00002195
2015-10-19 15:06:10 r, 00.00m,0000565172Hz,0000000000c,0000000.000s, 040.2C,00002195
2015-10-19 15:16:10 r, 00.00m,0000565146Hz,0000000000c,0000000.000s, 039.9C,00002195
2015-10-19 15:26:10 r, 00.00m,0000565132Hz,0000000000c,0000000.000s, 039.6C,00002195
2015-10-19 15:36:10 r, 00.00m,0000565074Hz,0000000000c,0000000.000s, 039.0C,00002195
2015-10-19 15:46:10 r, 00.00m,0000565084Hz,0000000000c,0000000.000s, 038.3C,00002195
2015-10-19 15:56:11 r, 00.00m,0000564967Hz,0000000000c,0000000.000s, 038.0C,00002195
2015-10-19 16:06:10 r, 00.00m,0000564850Hz,0000000000c,0000000.000s, 037.0C,00002195
2015-10-19 16:16:10 r, 00.00m,0000564766Hz,0000000000c,0000000.000s, 036.7C,00002195
2015-10-19 16:26:11 r, 00.00m,0000564762Hz,0000000000c,0000000.000s, 036.4C,00002195
2015-10-19 16:36:10 r, 00.00m,0000564652Hz,0000000000c,0000000.000s, 035.1C,00002195
2015-10-19 16:46:10 r, 00.00m,0000564560Hz,0000000000c,0000000.000s, 034.1C,00002195
2015-10-19 16:56:10 r, 00.00m,0000564380Hz,0000000000c,0000000.000s, 033.1C,00002195
2015-10-19 17:06:10 r, 00.00m,0000564387Hz,0000000000c,0000000.000s, 032.5C,00002195
2015-10-19 17:16:10 r, 00.00m,0000564389Hz,0000000000c,0000000.000s, 032.2C,00002195
2015-10-19 17:26:10 r, 00.00m,0000564274Hz,0000000000c,0000000.000s, 031.9C,00002195
2015-10-19 17:36:10 r, 00.00m,0000564340Hz,0000000000c,0000000.000s, 031.9C,00002195
2015-10-19 17:46:11 r, 00.00m,0000564286Hz,0000000000c,0000000.000s, 031.5C,00002195
2015-10-19 17:56:11 r, 00.00m,0000557685Hz,0000000000c,0000000.000s, 031.9C,00002195
2015-10-19 18:06:10 r, 06.03m,0000345297Hz,0000000000c,0000000.000s, 031.2C,00002195
2015-10-19 18:16:12 r, 06.62m,0000200698Hz,0000000000c,0000000.000s, 030.9C,00002195
2015-10-19 18:26:11 r, 07.46m,0000092387Hz,0000000000c,0000000.000s, 030.6C,00002195
2015-10-19 18:36:12 r, 08.46m,0000037005Hz,0000000000c,0000000.000s, 029.9C,00002195
2015-10-19 18:46:11 r, 09.95m,0000009388Hz,0000000000c,0000000.000s, 029.6C,00002195
2015-10-19 18:56:10 r, 11.94m,0000001494Hz,0000000000c,0000000.000s, 029.3C,00002195
2015-10-19 19:06:10 r, 14.01m,0000000222Hz,0000000000c,0000000.000s, 029.3C,00002195
2015-10-19 19:16:11 r, 16.11m,0000000032Hz,0000014412c,0000000.031s, 029.0C,00002195
2015-10-19 19:26:12 r, 17.39m,0000000010Hz,0000047169c,0000000.102s, 028.6C,00002195
2015-10-19 19:36:10 r, 17.94m,0000000006Hz,0000078568c,0000000.171s, 028.6C,00002195
2015-10-19 19:46:11 r, 18.02m,0000000006Hz,0000083754c,0000000.182s, 028.0C,00002195
2015-10-19 19:56:11 r, 18.15m,0000000005Hz,0000093865c,0000000.204s, 027.7C,00002195
2015-10-19 20:06:10 r, 18.15m,0000000005Hz,0000093808c,0000000.204s, 027.3C,00002195
2015-10-19 20:16:12 r, 18.26m,0000000005Hz,0000104258c,0000000.226s, 027.0C,00002195
2015-10-19 20:26:11 r, 18.29m,0000000004Hz,0000107370c,0000000.233s, 026.7C,00002195
2015-10-19 20:36:10 r, 18.37m,0000000004Hz,0000116272c,0000000.252s, 026.4C,00002195
2015-10-19 20:46:11 r, 18.38m,0000000004Hz,0000117114c,0000000.254s, 026.1C,00002195
2015-10-19 20:56:11 r, 18.28m,0000000004Hz,0000107206c,0000000.233s, 025.7C,00002195
2015-10-19 21:06:10 r, 18.22m,0000000005Hz,0000101025c,0000000.219s, 025.4C,00002195
2015-10-19 21:16:11 r, 18.31m,0000000004Hz,0000110434c,0000000.240s, 025.1C,00002195
2015-10-19 21:26:10 r, 18.37m,0000000004Hz,0000115876c,0000000.251s, 025.1C,00002195
2015-10-19 21:36:10 r, 18.32m,0000000004Hz,0000111389c,0000000.242s, 024.8C,00002195
2015-10-19 21:46:11 r, 18.30m,0000000005Hz,0000109459c,0000000.238s, 024.4C,00002195
2015-10-19 21:56:11 r, 18.42m,0000000004Hz,0000121796c,0000000.264s, 024.4C,00002195
2015-10-19 22:06:10 r, 18.33m,0000000004Hz,0000112296c,0000000.244s, 024.1C,00002195
2015-10-19 22:16:12 r, 18.46m,0000000003Hz,0000126663c,0000000.275s, 024.1C,00002195
2015-10-19 22:26:11 r, 18.45m,0000000004Hz,0000124945c,0000000.271s, 024.1C,00002195
2015-10-19 22:36:10 r, 18.45m,0000000004Hz,0000124670c,0000000.271s, 023.8C,00002195
2015-10-19 22:46:11 r, 18.42m,0000000003Hz,0000121802c,0000000.264s, 023.8C,00002195
2015-10-19 22:56:11 r, 18.23m,0000000005Hz,0000101751c,0000000.221s, 023.8C,00002195
2015-10-19 23:06:10 r, 18.38m,0000000004Hz,0000115920c,0000000.252s, 023.5C,00002195
2015-10-19 23:16:11 r, 18.40m,0000000003Hz,0000118122c,0000000.256s, 023.5C,00002195
2015-10-19 23:26:11 r, 18.32m,0000000004Hz,0000111293c,0000000.242s, 023.5C,00002195
2015-10-19 23:36:10 r, 18.29m,0000000004Hz,0000107534c,0000000.233s, 023.5C,00002195
2015-10-19 23:46:11 r, 17.88m,0000000006Hz,0000073917c,0000000.160s, 023.5C,00002195
2015-10-19 23:56:10 r, 17.27m,0000000011Hz,0000042082c,0000000.091s, 023.5C,00002195
